• In United Kingdom
  • List of Countries
  • For 7 days
  • Water Temperature
  • Satellite Maps
  • Weather Map
  • Weather Widgets
  • user-avatar
    Login

    Hourly Weather Seli

    Today, 17 July, Tuesday

    Time Temperature Precipitation Wind Pressure Humidity
    00:00 +28°C° 0 mm 2 mps 746 mmHg 40%
    01:00 +28°C° 0 mm 2 mps 746 mmHg 40%
    02:00 +28°C° 0 mm 2 mps 746 mmHg 40%
    03:00 +28°C° 0 mm 2 mps 746 mmHg 41%
    04:00 +28°C° 0 mm 1 mps 746 mmHg 41%
    05:00 +28°C° 0 mm 1 mps 745 mmHg 42%
    06:00 +29°C° 0 mm 1 mps 745 mmHg 39%
    07:00 +31°C° 0 mm 1 mps 745 mmHg 37%
    08:00 +32°C° 0 mm 1 mps 746 mmHg 35%
    09:00 +35°C° 0 mm 2 mps 746 mmHg 33%
    10:00 +36°C° 0 mm 3 mps 746 mmHg 32%
    11:00 +37°C° 0 mm 4 mps 746 mmHg 31%
    12:00 +37°C° 0 mm 4 mps 746 mmHg 31%
    13:00 +39°C° 0 mm 5 mps 746 mmHg 31%
    14:00 +39°C° 0 mm 5 mps 746 mmHg 31%
    15:00 +39°C° 0 mm 6 mps 745 mmHg 32%
    16:00 +39°C° 0 mm 6 mps 745 mmHg 34%
    17:00 +38°C° 0 mm 6 mps 744 mmHg 35%
    18:00 +36°C° 0 mm 6 mps 744 mmHg 39%
    19:00 +34°C° 0 mm 6 mps 744 mmHg 43%
    20:00 +32°C° 0 mm 6 mps 744 mmHg 48%
    21:00 +32°C° 0 mm 6 mps 744 mmHg 50%
    22:00 +30°C° 0 mm 6 mps 744 mmHg 53%
    23:00 +29°C° 0 mm 6 mps 744 mmHg 56%

    Tomorrow, 18 July, Wednesday

    Time Temperature Precipitation Wind Pressure Humidity
    00:00 +28°C° 0 mm 7 mps 743 mmHg 58%
    01:00 +28°C° 0 mm 7 mps 743 mmHg 61%
    02:00 +27°C° 0 mm 7 mps 743 mmHg 63%
    03:00 +27°C° 0 mm 7 mps 743 mmHg 66%
    04:00 +27°C° 0 mm 7 mps 742 mmHg 68%
    05:00 +26°C° 0 mm 7 mps 742 mmHg 71%
    06:00 +27°C° 0 mm 7 mps 742 mmHg 66%
    07:00 +29°C° 0 mm 7 mps 742 mmHg 61%
    08:00 +30°C° 0 mm 7 mps 742 mmHg 56%
    09:00 +32°C° 0 mm 7 mps 743 mmHg 52%
    10:00 +33°C° 0 mm 6 mps 743 mmHg 48%
    11:00 +34°C° 0 mm 6 mps 743 mmHg 44%
    12:00 +34°C° 0 mm 5 mps 743 mmHg 42%
    13:00 +35°C° 0 mm 5 mps 743 mmHg 41%
    14:00 +35°C° 0 mm 5 mps 743 mmHg 39%
    15:00 +35°C° 0 mm 5 mps 743 mmHg 39%
    16:00 +35°C° 0 mm 4 mps 743 mmHg 40%
    17:00 +35°C° 0 mm 4 mps 743 mmHg 40%
    18:00 +33°C° 0 mm 4 mps 743 mmHg 43%
    19:00 +32°C° 0 mm 4 mps 743 mmHg 46%
    20:00 +30°C° 0 mm 4 mps 743 mmHg 50%
    21:00 +29°C° 0 mm 3 mps 744 mmHg 50%
    22:00 +29°C° 0 mm 3 mps 744 mmHg 50%
    23:00 +28°C° 0 mm 3 mps 744 mmHg 50%

    Day after tomorrow, 19 July, Thursday

    Time Temperature Precipitation Wind Pressure Humidity
    00:00 +28°C° 0 mm 3 mps 744 mmHg 50%
    01:00 +28°C° 0 mm 3 mps 744 mmHg 50%
    02:00 +27°C° 0 mm 2 mps 743 mmHg 49%
    03:00 +27°C° 0 mm 2 mps 743 mmHg 48%
    04:00 +27°C° 0 mm 2 mps 743 mmHg 48%
    05:00 +27°C° 0 mm 2 mps 743 mmHg 47%
    06:00 +28°C° 0 mm 2 mps 743 mmHg 43%
    07:00 +30°C° 0 mm 2 mps 744 mmHg 39%
    08:00 +31°C° 0 mm 2 mps 744 mmHg 36%
    09:00 +32°C° 0 mm 2 mps 744 mmHg 35%
    10:00 +34°C° 0 mm 2 mps 744 mmHg 35%
    11:00 +35°C° 0 mm 3 mps 745 mmHg 34%
    12:00 +35°C° 0 mm 3 mps 744 mmHg 34%
    13:00 +36°C° 0 mm 3 mps 744 mmHg 33%
    14:00 +36°C° 0 mm 3 mps 744 mmHg 33%
    15:00 +36°C° 0 mm 3 mps 744 mmHg 34%
    16:00 +36°C° 0 mm 3 mps 744 mmHg 35%
    17:00 +35°C° 0 mm 3 mps 744 mmHg 36%
    18:00 +34°C° 0 mm 3 mps 744 mmHg 39%
    19:00 +33°C° 0 mm 3 mps 744 mmHg 42%
    20:00 +30°C° 0 mm 2 mps 744 mmHg 46%
    21:00 +29°C° 0 mm 2 mps 745 mmHg 46%
    22:00 +29°C° 0 mm 2 mps 745 mmHg 46%
    23:00 +28°C° 0 mm 2 mps 745 mmHg 47%

    20 July, Friday

    Time Temperature Precipitation Wind Pressure Humidity
    00:00 +28°C° 0 mm 2 mps 745 mmHg 46%
    01:00 +28°C° 0 mm 2 mps 744 mmHg 46%
    02:00 +27°C° 0 mm 1 mps 744 mmHg 46%
    03:00 +27°C° 0 mm 1 mps 744 mmHg 45%
    04:00 +27°C° 0 mm 1 mps 744 mmHg 43%
    05:00 +27°C° 0 mm 1 mps 744 mmHg 42%
    06:00 +28°C° 0 mm 1 mps 744 mmHg 40%
    07:00 +29°C° 0 mm 1 mps 744 mmHg 38%
    08:00 +31°C° 0 mm 1 mps 744 mmHg 36%
    09:00 +32°C° 0 mm 2 mps 745 mmHg 36%
    10:00 +32°C° 0 mm 2 mps 745 mmHg 36%
    11:00 +34°C° 0 mm 3 mps 745 mmHg 37%
    12:00 +34°C° 0 mm 3 mps 745 mmHg 37%
    13:00 +35°C° 0 mm 4 mps 745 mmHg 37%
    14:00 +35°C° 0 mm 4 mps 746 mmHg 37%
    15:00 +35°C° 0 mm 4 mps 746 mmHg 38%
    16:00 +35°C° 0 mm 3 mps 745 mmHg 38%
    17:00 +35°C° 0 mm 3 mps 745 mmHg 39%
    18:00 +33°C° 0 mm 3 mps 746 mmHg 42%
    19:00 +31°C° 0 mm 3 mps 746 mmHg 45%
    20:00 +30°C° 0 mm 2 mps 746 mmHg 48%
    21:00 +29°C° 0 mm 3 mps 746 mmHg 50%
    22:00 +28°C° 0 mm 3 mps 746 mmHg 52%
    23:00 +28°C° 0 mm 3 mps 746 mmHg 54%

    21 July, Saturday

    Time Temperature Precipitation Wind Pressure Humidity
    00:00 +27°C° 0 mm 3 mps 746 mmHg 56%
    01:00 +27°C° 0 mm 3 mps 745 mmHg 57%
    02:00 +27°C° 0 mm 3 mps 745 mmHg 58%
    03:00 +27°C° 0 mm 3 mps 745 mmHg 60%
    04:00 +26°C° 0 mm 3 mps 745 mmHg 61%
    05:00 +26°C° 0 mm 3 mps 745 mmHg 63%
    06:00 +27°C° 0 mm 3 mps 745 mmHg 58%
    07:00 +29°C° 0 mm 2 mps 745 mmHg 53%
    08:00 +30°C° 0 mm 2 mps 746 mmHg 48%
    09:00 +31°C° 0 mm 3 mps 746 mmHg 45%
    10:00 +33°C° 0 mm 3 mps 746 mmHg 42%
    11:00 +34°C° 0 mm 3 mps 746 mmHg 39%
    12:00 +35°C° 0 mm 3 mps 746 mmHg 39%
    13:00 +35°C° 0 mm 4 mps 746 mmHg 38%
    14:00 +36°C° 0 mm 4 mps 746 mmHg 38%
    15:00 +36°C° 0 mm 4 mps 746 mmHg 38%
    16:00 +35°C° 0 mm 3 mps 746 mmHg 38%
    17:00 +35°C° 0 mm 3 mps 745 mmHg 38%
    18:00 +34°C° 0 mm 3 mps 745 mmHg 42%
    19:00 +31°C° 0 mm 3 mps 746 mmHg 46%
    20:00 +30°C° 0 mm 3 mps 746 mmHg 49%
    21:00 +30°C° 0 mm 3 mps 746 mmHg 51%
    22:00 +29°C° 0 mm 3 mps 746 mmHg 52%
    23:00 +29°C° 0 mm 4 mps 746 mmHg 53%

    22 July, Sunday

    Time Temperature Precipitation Wind Pressure Humidity
    00:00 +28°C° 0 mm 4 mps 745 mmHg 53%
    01:00 +28°C° 0 mm 4 mps 745 mmHg 52%
    02:00 +28°C° 0 mm 4 mps 745 mmHg 52%
    03:00 +28°C° 0 mm 3 mps 744 mmHg 52%
    04:00 +27°C° 0 mm 3 mps 744 mmHg 51%
    05:00 +27°C° 0 mm 3 mps 744 mmHg 50%
    06:00 +29°C° 0 mm 3 mps 744 mmHg 47%
    07:00 +31°C° 0 mm 3 mps 744 mmHg 43%
    08:00 +33°C° 0 mm 3 mps 744 mmHg 40%
    09:00 +34°C° 0 mm 3 mps 744 mmHg 37%
    10:00 +36°C° 0 mm 3 mps 744 mmHg 34%
    11:00 +37°C° 0 mm 3 mps 744 mmHg 32%
    12:00 +38°C° 0 mm 4 mps 744 mmHg 30%
    13:00 +38°C° 0 mm 4 mps 744 mmHg 28%
    14:00 +40°C° 0 mm 5 mps 743 mmHg 27%
    15:00 +40°C° 0 mm 5 mps 743 mmHg 28%
    16:00 +39°C° 0 mm 5 mps 743 mmHg 29%
    17:00 +39°C° 0 mm 6 mps 743 mmHg 31%
    18:00 +36°C° 0 mm 5 mps 742 mmHg 37%
    19:00 +34°C° 0 mm 5 mps 742 mmHg 44%
    20:00 +32°C° 0 mm 5 mps 742 mmHg 51%
    21:00 +32°C° 0 mm 5 mps 742 mmHg 55%
    22:00 +30°C° 0 mm 6 mps 742 mmHg 58%
    23:00 +29°C° 0 mm 6 mps 741 mmHg 61%
    Show more